GEFSSE_con_probscp_132.txt.gz
Probability
0 0 1 1 0 0 0 0 0 0 0 0 0 1 2 2 1 0 0 0 0 0 0 0 0 0 0 0 0 0 0 0 0 0 0 0 0 0 0 0 0 0 0
3 2 2 3 2 0 0 0 0 0 0 0 1 1 1 1 0 0 0 0 0 0 0 0 0 0 0 0 0 0 0 0 0 0 0 0 0 0 0 0 0 0 0
8 5 4 5 4 2 1 1 1 1 0 0 1 1 0 0 0 0 0 0 0 0 0 0 0 0 0 0 0 0 0 0 0 0 0 0 0 0 0 0 0 0 0
10 7 7 7 5 3 3 2 3 3 2 1 1 1 0 0 0 0 0 0 0 0 0 0 0 0 0 0 0 0 0 0 0 0 0 0 0 0 0 0 0 0 0
9 8 9 10 7 5 4 4 5 5 4 4 3 1 1 0 0 1 1 0 0 0 0 0 0 0 0 0 0 0 0 0 0 0 0 0 0 0 0 0 0 0 0
9 9 12 13 11 9 8 8 8 7 7 7 5 3 2 1 1 2 2 1 0 0 0 0 0 0 0 0 0 0 0 0 0 0 0 0 0 0 0 0 0 0 0
12 12 14 18 18 15 13 13 12 10 9 9 7 4 2 1 1 3 3 2 1 0 0 0 0 0 0 0 0 0 0 0 0 0 0 0 0 0 0 0 0 0 0
18 16 18 21 22 22 20 18 16 13 11 11 10 7 4 3 3 4 5 4 2 1 0 0 0 0 0 0 0 0 0 0 0 0 0 0 0 0 0 0 0 0 0
22 21 21 22 23 25 25 23 20 16 15 16 16 12 8 6 5 6 7 7 5 2 1 1 2 2 1 0 0 0 0 0 0 0 0 0 0 0 0 0 0 0 0
22 22 21 22 22 25 27 29 25 20 19 22 23 19 13 8 6 6 7 8 7 5 3 3 5 4 2 1 0 0 0 0 0 0 0 0 0 0 1 1 1 0 0
22 20 19 19 21 23 27 29 27 21 19 21 22 20 14 9 6 6 6 7 8 8 8 9 9 7 4 2 1 0 0 0 0 0 0 0 0 0 2 2 1 0 0
20 17 15 15 17 19 22 23 21 17 14 14 15 14 10 7 6 5 5 6 9 10 11 12 9 6 4 3 1 0 0 0 0 0 0 0 1 2 4 3 2 1 1
15 13 11 10 11 12 15 15 13 11 10 8 8 7 5 4 5 6 5 7 9 9 9 8 6 4 3 3 1 0 0 0 0 0 0 1 3 5 6 5 3 2 2
15 13 9 7 6 7 9 9 8 8 8 7 6 6 5 3 4 6 6 7 9 8 6 4 2 1 2 1 1 0 0 0 0 0 1 4 7 8 8 6 4 3 3
19 16 10 5 4 5 7 6 5 6 7 7 8 9 7 4 3 5 6 7 7 7 5 3 1 0 0 0 0 0 0 0 0 0 1 5 9 11 10 9 6 4 3
18 16 11 6 4 5 5 5 4 5 6 7 10 11 9 5 3 3 4 3 3 3 3 3 2 1 1 0 0 1 1 0 0 0 1 4 8 10 11 11 9 6 5
16 14 11 7 4 4 4 4 5 6 5 5 6 7 7 6 4 3 2 1 1 1 1 2 2 2 2 1 0 1 1 0 0 0 2 3 5 7 9 10 8 6 5
15 13 11 8 6 6 6 6 8 9 7 5 4 4 6 6 5 3 1 0 0 0 0 1 2 2 2 1 0 1 1 0 0 0 1 2 3 4 5 6 4 4 5
12 11 10 8 8 9 9 9 11 12 12 10 7 5 7 6 5 3 2 0 0 0 0 0 1 2 1 0 0 0 0 0 0 0 0 1 2 2 2 2 2 2 3
9 9 9 8 9 9 9 9 11 11 11 11 8 6 7 6 5 3 1 0 0 0 0 0 0 1 1 0 0 1 1 1 0 0 0 0 1 1 0 1 1 1 1
8 8 8 8 7 6 6 7 6 6 5 4 4 5 5 4 4 3 2 1 1 0 0 0 0 0 0 0 0 1 2 1 0 0 0 0 0 0 0 0 0 0 0
7 6 7 6 4 4 4 4 3 2 1 1 1 1 2 1 2 3 4 3 3 2 0 0 0 0 0 0 0 1 1 0 0 0 0 1 1 1 0 0 0 0 0
5 5 5 4 2 2 2 2 2 1 1 0 0 0 0 0 0 2 3 4 4 3 1 0 0 0 0 0 0 0 0 0 0 0 0 1 2 1 0 0 0 0 0
4 4 4 3 1 0 1 1 1 0 0 0 0 0 0 0 0 1 2 3 3 2 1 0 0 0 0 0 0 0 0 0 0 0 0 1 2 1 0 0 0 0 0
4 4 4 3 1 0 0 0 0 0 0 0 0 0 0 0 0 0 1 2 1 1 0 0 0 0 0 0 0 0 0 0 0 0 0 0 0 0 0 0 0 0 0
4 5 5 3 1 0 0 0 0 0 0 0 0 0 0 0 0 0 0 1 0 0 0 0 0 0 0 0 0 0 0 0 0 0 0 0 0 0 0 0 0 0 0

GEFSSE_con_probscp_138.txt.gz
Probability
0 0 0 0 1 2 3 4 4 4 5 9 11 11 9 5 2 0 0 0 0 0 0 0 0 0 0 0 0 0 0 0 0 0 0 0 0 0 0 0 0 0 0
0 0 0 0 1 3 3 3 3 3 5 8 9 10 9 6 3 1 0 0 0 0 0 0 0 0 0 0 0 0 0 0 0 0 0 0 0 0 0 0 0 0 0
1 1 0 1 2 4 4 3 3 2 4 7 8 9 8 6 3 1 0 0 0 0 0 0 0 0 0 0 0 0 0 0 0 0 0 0 0 0 0 0 0 0 0
2 2 1 2 4 5 5 4 2 2 3 6 8 9 6 4 2 0 0 0 0 0 0 0 0 0 0 0 0 0 0 0 0 0 0 0 0 0 0 0 0 0 0
4 3 2 4 5 6 6 4 2 2 3 6 7 7 5 3 2 2 1 0 0 0 0 0 0 0 0 0 0 0 0 0 0 0 0 0 0 0 0 0 0 0 0
7 5 4 5 6 6 6 4 3 3 5 6 7 7 6 5 5 4 2 0 0 0 0 0 0 0 0 0 0 0 0 0 0 0 0 0 0 0 0 0 0 0 0
10 7 5 5 6 7 7 6 5 6 7 7 8 8 8 7 8 7 4 1 0 0 1 0 0 0 0 0 0 0 0 0 0 0 0 0 0 0 0 0 0 0 0
13 11 6 5 6 8 11 11 9 10 10 9 9 10 10 9 9 8 6 2 0 1 1 1 0 0 0 0 0 0 0 0 0 0 0 0 0 0 0 0 0 0 0
14 13 8 6 7 10 13 14 13 13 13 12 12 11 10 9 7 7 6 4 1 1 2 2 2 1 1 1 1 1 1 0 0 0 0 0 0 0 0 0 0 0 0
14 13 11 9 10 11 12 13 14 14 16 16 15 12 10 8 6 5 7 6 3 1 2 4 5 5 5 5 4 3 3 1 0 0 0 0 0 0 0 0 1 1 0
16 14 13 13 12 11 11 11 11 12 15 16 14 12 11 8 6 7 10 10 7 4 3 5 6 7 7 6 5 5 5 3 1 0 0 0 0 0 0 1 1 2 1
18 15 14 14 12 11 11 9 8 9 10 11 11 10 9 7 7 8 11 13 12 9 7 7 6 6 6 6 5 6 6 4 2 1 1 0 0 1 1 1 1 2 2
18 15 13 12 11 11 9 8 8 7 6 7 8 9 8 7 7 7 9 11 13 12 10 9 8 7 7 7 6 5 5 5 4 3 2 2 1 2 2 1 0 1 1
16 14 10 9 10 10 9 9 9 8 5 5 7 8 8 8 7 7 6 8 11 11 10 9 8 8 8 8 7 6 6 6 5 4 3 3 3 2 1 0 0 0 0
12 10 9 8 7 8 8 8 8 7 6 5 6 7 8 8 8 8 6 6 9 11 9 7 6 6 7 7 7 6 6 6 4 3 4 6 7 6 4 3 1 0 0
8 8 7 6 5 5 6 6 5 4 4 5 5 6 5 4 6 6 5 5 7 9 9 6 5 5 4 5 6 6 6 6 4 3 4 8 11 10 8 6 3 1 1
7 7 6 5 3 3 3 3 2 1 1 3 3 3 2 1 2 3 2 2 4 5 6 5 5 5 3 3 4 5 6 5 4 4 4 6 9 9 8 7 4 3 2
7 6 5 4 2 1 1 1 1 0 0 1 1 1 0 0 0 0 0 0 1 2 3 3 4 4 3 2 3 3 2 2 3 4 4 3 4 5 5 5 4 3 2
5 4 4 3 1 0 0 0 0 0 0 0 0 0 0 0 0 0 0 0 0 1 1 1 2 2 1 1 2 1 0 1 2 3 3 2 2 3 3 4 3 2 1
3 3 3 2 1 0 0 1 1 1 0 0 0 0 0 0 0 0 1 1 1 1 1 0 0 0 0 0 0 0 0 0 1 1 1 2 3 3 2 2 3 2 1
4 3 3 3 1 1 1 2 2 1 0 0 0 0 0 0 0 0 1 1 1 1 2 1 1 1 0 0 0 0 0 0 0 0 1 2 3 3 3 3 4 3 1
4 3 3 2 2 2 2 2 2 1 0 0 0 0 0 0 0 0 0 0 0 1 2 2 3 2 1 0 0 0 0 0 0 0 1 2 3 3 3 4 4 3 2
2 2 2 2 3 2 1 1 1 0 0 0 0 0 0 0 0 0 0 0 0 0 1 2 3 3 2 0 0 0 0 0 0 0 0 1 2 3 3 3 4 3 3
1 2 1 1 2 1 0 0 0 0 0 0 0 0 0 0 0 0 0 0 0 0 0 1 2 3 2 1 0 0 0 0 0 0 0 0 2 3 3 3 3 3 3
1 1 1 1 1 0 0 0 0 0 0 0 0 0 0 0 0 0 0 0 0 0 0 0 1 3 3 2 0 0 0 0 0 0 0 0 1 2 2 2 3 3 3
0 1 0 0 0 0 0 0 0 0 0 0 0 0 0 0 0 0 0 0 0 0 0 0 1 2 3 1 0 0 0 0 0 0 0 0 0 1 1 1 2 3 3

GEFSSE_con_probscp_144.txt.gz
Probability
1 1 1 0 0 0 0 1 5 7 7 5 3 2 2 1 0 0 0 0 0 0 0 0 0 0 0 0 0 0 0 0 0 0 0 0 0 0 0 0 0 0 0
1 1 0 0 0 0 0 2 5 7 7 6 5 5 4 2 1 0 0 0 0 0 0 0 0 0 0 0 0 0 0 0 0 0 0 0 0 0 0 0 0 0 0
2 1 0 0 0 0 1 4 7 8 7 6 6 6 7 5 2 1 0 0 0 0 0 0 0 0 0 0 0 0 0 0 0 0 0 0 0 0 0 0 0 0 0
3 2 1 1 2 2 3 6 8 8 7 6 5 5 6 5 3 1 0 0 0 0 0 0 0 0 0 0 0 0 0 0 0 0 0 0 0 0 0 0 0 0 0
3 3 2 3 3 3 4 6 8 8 7 7 5 4 4 4 3 2 1 0 0 0 0 0 0 0 0 0 0 0 0 0 0 0 0 0 0 1 0 0 1 0 0
3 3 3 3 3 4 5 7 9 9 9 7 4 2 2 3 3 2 1 0 0 0 0 0 0 0 0 0 0 0 0 0 0 0 0 0 1 2 1 0 0 0 0
4 4 3 3 3 3 4 6 8 9 9 7 5 3 2 3 3 1 0 0 0 0 0 0 0 0 0 0 0 0 0 0 0 0 0 0 2 3 1 0 0 0 0
5 4 4 3 4 4 4 5 6 7 8 9 8 5 3 2 2 1 0 0 0 0 0 0 0 0 0 0 0 0 0 0 0 0 0 1 3 3 1 0 0 0 0
5 4 4 4 4 4 3 4 6 9 11 13 11 7 4 2 1 0 1 1 0 0 0 0 0 0 0 0 0 0 0 0 0 0 0 1 2 2 1 0 0 0 0
7 7 5 5 6 5 3 5 9 12 15 14 11 7 5 2 1 1 3 5 3 1 0 1 1 0 0 0 0 0 0 0 0 0 0 2 3 2 1 0 0 0 0
11 10 8 7 7 5 4 8 11 13 14 11 8 7 6 4 3 5 9 11 8 4 3 3 2 1 1 1 1 1 1 0 0 0 2 5 5 3 1 0 0 0 0
13 12 10 9 9 7 7 10 12 13 12 8 6 8 7 7 6 8 14 15 11 7 5 5 4 1 1 2 3 3 1 1 0 0 3 7 7 4 2 1 0 0 0
14 12 12 13 14 12 12 13 13 14 13 10 9 10 10 9 8 10 13 13 11 9 9 8 6 2 1 3 4 4 2 2 2 3 7 11 10 7 6 3 1 1 1
14 13 14 17 19 18 17 16 14 14 13 12 11 11 10 10 10 11 12 12 12 13 16 16 11 6 5 6 5 3 4 4 5 7 12 13 12 11 10 7 4 3 2
16 14 14 18 21 21 20 18 16 14 12 11 10 10 9 9 11 13 15 15 16 20 23 23 18 15 13 11 7 6 5 6 7 9 13 14 12 11 11 9 7 6 4
17 15 16 20 23 22 20 21 19 15 12 9 7 7 7 8 10 15 18 18 18 21 24 24 24 24 21 17 14 13 11 10 11 12 13 14 13 11 11 12 13 12 9
21 21 20 21 22 20 19 21 20 16 11 8 7 5 5 5 8 13 17 17 16 18 21 25 27 28 26 23 22 21 19 17 17 17 16 16 15 13 13 15 17 15 11
27 28 25 21 20 19 18 20 19 16 13 10 9 6 3 3 5 10 14 16 16 17 19 22 26 29 28 26 25 24 23 21 19 17 15 15 15 15 16 18 17 13 10
30 30 26 23 23 21 20 20 21 20 18 13 10 6 3 3 5 8 12 16 18 18 17 18 23 27 27 23 20 20 20 18 16 14 11 11 13 16 17 19 19 15 12
30 30 27 27 28 25 22 22 22 22 19 15 10 7 5 5 6 8 12 15 16 15 13 13 17 21 22 19 16 14 14 14 14 13 11 11 12 13 15 18 21 20 17
30 29 28 29 30 27 24 23 21 19 16 14 12 10 8 7 8 10 13 15 14 12 10 9 11 14 16 16 15 13 12 11 12 13 14 15 12 10 11 14 18 20 20
27 26 27 28 27 24 21 19 17 16 15 14 13 12 10 9 9 11 12 14 12 10 9 8 8 9 10 12 13 13 11 10 10 10 12 13 11 9 10 12 15 17 17
25 26 28 28 25 20 16 13 12 14 15 14 13 12 9 8 7 8 9 9 8 8 8 7 6 7 9 10 11 11 10 9 7 6 5 5 7 9 11 11 11 12 12
26 29 31 28 22 18 14 10 9 12 14 13 11 9 7 5 4 4 6 5 5 5 5 4 3 5 9 10 9 9 10 9 7 5 2 2 4 8 9 9 9 10 10
26 31 32 26 19 16 13 10 10 12 12 11 9 8 6 4 1 1 3 3 2 2 1 1 1 4 6 7 6 7 9 9 7 5 3 2 4 6 7 8 9 10 10
25 30 30 22 17 16 13 10 11 12 12 10 8 7 6 3 1 0 1 1 1 0 0 0 1 2 3 4 4 5 7 7 6 5 3 3 4 5 5 7 9 11 12

GEFSSE_con_probscp_150.txt.gz
Probability
8 8 8 5 3 1 0 0 0 0 0 0 0 0 0 0 0 1 0 0 0 0 0 0 0 0 0 0 0 0 0 0 0 0 0 0 0 0 0 0 0 0 0
11 9 8 6 3 2 1 0 0 0 0 0 0 0 0 0 0 1 0 0 0 0 0 0 0 0 0 0 0 0 0 0 0 0 0 0 0 0 0 0 0 0 0
13 10 9 8 6 4 2 1 0 0 1 1 2 2 0 0 0 0 0 0 0 0 0 0 0 0 0 0 0 0 0 0 0 0 0 0 0 0 0 0 0 0 0
12 10 10 11 10 7 4 2 1 1 2 3 4 3 1 0 0 0 0 0 0 0 0 0 0 0 0 0 0 0 0 0 0 0 0 0 0 0 0 0 0 1 1
13 12 13 15 15 11 8 5 2 1 3 5 5 3 1 0 0 0 0 0 0 0 0 0 0 0 0 0 0 0 0 0 0 0 0 0 0 0 0 0 1 2 2
16 15 15 17 18 15 12 9 6 2 2 4 5 4 3 1 0 0 0 0 0 0 0 0 0 0 0 0 0 0 0 0 0 0 0 0 0 0 0 1 2 2 2
21 18 16 19 19 17 13 11 8 3 1 3 5 5 4 3 1 0 0 0 0 0 0 0 0 0 0 0 0 0 0 0 0 0 0 1 2 1 0 1 1 1 1
24 19 16 16 16 15 13 11 10 6 3 4 6 5 4 3 2 1 0 0 1 1 0 0 0 0 0 0 0 0 0 0 0 0 1 4 7 5 1 0 0 0 0
22 18 12 9 9 10 10 10 10 8 7 6 6 5 4 2 2 2 1 2 2 2 1 0 0 0 0 0 0 0 0 0 0 0 1 8 15 13 6 1 0 0 0
20 16 9 6 6 6 6 8 9 9 8 7 5 4 4 3 3 3 3 4 4 4 3 2 2 1 1 1 0 0 0 0 0 0 5 15 25 22 12 4 0 0 0
24 19 12 10 8 7 6 8 9 10 9 7 5 5 5 5 4 5 9 12 11 7 6 5 4 4 3 2 2 2 1 0 0 2 13 30 37 30 19 10 4 2 1
31 24 17 15 14 13 13 14 13 12 12 9 8 10 10 7 7 10 20 27 20 11 8 8 9 8 6 5 6 8 5 1 1 5 22 43 47 36 25 16 10 6 3
35 29 23 22 25 27 25 23 20 20 20 16 15 18 17 13 14 20 31 34 26 16 13 13 13 12 9 8 10 11 8 4 4 10 28 47 52 43 30 20 14 10 7
41 37 34 36 42 45 41 35 31 30 28 26 27 28 27 25 26 31 37 38 31 24 24 23 21 18 15 13 12 11 10 9 12 18 31 45 50 45 35 25 17 12 10
46 46 48 52 56 58 56 48 41 39 37 37 39 38 36 37 38 40 44 44 39 35 35 35 31 29 28 24 18 13 13 16 22 27 33 42 46 42 35 29 23 16 12
51 54 58 60 61 61 59 53 45 43 44 43 45 42 40 42 44 44 47 48 44 40 38 37 36 38 39 34 27 21 20 22 27 31 34 39 41 38 35 33 29 21 14
57 59 60 59 58 57 54 49 42 41 41 42 43 42 37 37 38 38 40 43 41 37 35 35 38 42 42 37 32 29 26 24 27 28 29 32 35 36 36 36 33 26 21
62 62 59 53 52 52 49 45 40 37 38 38 40 39 33 27 27 29 30 34 35 33 33 36 39 43 41 36 32 30 27 25 24 22 22 26 30 35 36 36 34 29 25
62 62 58 53 52 51 48 46 42 39 38 39 39 37 31 24 21 21 23 27 28 30 34 34 35 37 36 31 25 22 22 24 23 20 22 25 30 35 35 36 35 29 24
61 61 59 57 55 53 49 47 44 40 38 38 36 33 30 25 20 17 19 22 22 27 31 30 27 27 27 24 16 12 15 20 22 23 24 26 29 32 33 35 34 29 24
59 59 59 58 56 53 50 47 44 41 38 36 33 30 26 23 18 16 17 19 20 23 26 25 21 19 18 18 13 9 10 15 19 21 23 24 23 25 28 29 29 29 28
55 54 54 54 53 53 51 48 45 41 38 36 33 30 25 20 15 14 15 17 19 20 21 21 19 15 12 11 11 8 6 9 12 15 18 18 17 19 22 24 25 26 27
50 49 48 49 50 51 51 47 40 35 33 32 32 30 25 18 13 11 11 12 12 13 14 16 16 13 8 6 6 5 4 4 7 10 12 12 12 15 18 19 19 20 21
49 47 46 47 49 50 49 42 34 30 28 28 28 27 22 17 11 8 7 6 6 7 6 8 10 8 6 4 3 3 4 4 5 6 6 6 7 10 13 14 13 14 16
44 42 42 45 48 48 45 40 34 30 28 27 24 21 19 15 9 5 3 4 5 5 3 3 4 5 4 2 2 3 4 5 5 4 3 3 3 5 7 8 9 10 12
38 36 37 42 47 46 43 40 37 32 29 27 23 19 17 13 7 2 2 3 4 4 3 3 3 2 2 1 1 2 4 5 5 4 2 2 2 2 4 6 7 8 9

GEFSSE_con_probscp_156.txt.gz
Probability
2 3 3 4 4 3 1 1 1 0 0 0 0 0 1 3 3 3 3 3 1 0 0 0 0 0 0 0 0 0 0 0 0 0 0 0 0 0 0 0 0 0 0
4 4 5 5 5 3 1 2 2 1 0 0 0 1 2 3 3 3 3 3 2 1 0 0 0 0 0 0 0 0 0 0 0 0 0 0 0 0 0 0 0 0 0
8 8 8 9 8 3 2 4 4 3 2 1 0 1 2 2 3 3 3 3 2 1 0 0 0 0 0 0 0 0 0 0 0 0 0 0 0 0 0 0 0 0 0
12 11 11 14 13 8 4 5 5 5 3 2 1 1 2 3 3 4 3 1 1 1 0 0 0 0 0 0 0 0 0 0 0 0 0 0 0 0 0 0 0 0 0
14 12 15 21 22 16 10 8 7 7 5 3 2 2 3 3 4 4 3 1 0 0 0 0 0 0 0 0 0 0 0 0 0 0 0 0 0 0 0 0 0 0 0
13 14 21 29 30 24 18 14 11 10 8 6 3 3 3 3 3 4 3 2 1 1 0 0 0 0 0 0 0 0 0 0 0 0 0 0 0 0 0 0 0 0 0
11 14 23 31 32 28 25 21 16 11 9 8 6 5 3 3 3 3 2 2 2 1 0 0 0 0 0 0 0 0 0 0 0 0 0 0 0 0 0 0 0 0 1
11 13 19 26 29 29 29 25 18 12 8 7 7 6 4 3 3 2 1 1 1 0 0 0 0 0 0 0 0 0 0 0 0 1 0 0 0 0 0 0 0 0 1
12 12 15 19 22 27 29 26 21 15 11 8 7 6 5 3 2 2 0 0 0 0 0 0 0 0 1 1 0 0 0 0 0 0 0 0 0 0 1 1 0 0 1
12 12 13 14 15 20 23 24 22 19 15 12 8 7 6 4 3 2 1 0 0 0 0 0 0 0 2 2 2 2 1 0 0 0 0 1 2 2 2 2 1 1 0
12 11 11 11 10 13 18 21 22 20 18 15 11 9 8 7 5 4 2 1 1 1 1 1 1 1 3 4 5 3 2 2 2 2 2 4 7 7 5 5 3 2 1
12 10 9 9 9 12 16 19 20 19 18 16 14 12 11 9 7 6 4 3 3 3 2 2 2 3 4 6 6 4 4 4 3 3 5 9 15 15 11 8 5 2 1
17 14 12 11 10 11 14 17 18 17 17 17 15 14 12 9 6 6 7 7 6 5 4 4 2 2 3 5 6 4 3 4 3 3 5 10 17 20 17 13 8 4 3
23 21 17 14 11 10 13 16 17 17 16 14 12 11 10 7 4 5 6 7 7 7 6 4 3 2 2 4 5 4 2 1 2 2 4 9 16 21 21 18 13 9 6
28 26 24 20 16 13 14 16 16 15 13 10 7 6 6 5 3 3 4 5 7 7 6 4 3 3 3 3 3 2 1 1 1 1 2 8 15 20 22 21 18 13 9
32 31 30 28 24 19 17 15 13 11 9 6 5 4 4 5 4 3 4 5 6 6 3 1 2 3 3 3 2 1 1 0 0 0 1 5 12 16 19 21 20 17 14
34 34 34 33 29 24 19 14 11 10 8 6 5 6 6 7 7 6 5 6 5 4 2 1 1 3 3 3 2 1 0 0 0 0 0 2 5 9 13 17 19 19 19
33 33 34 33 29 24 19 14 13 13 11 9 7 7 8 9 9 7 5 5 5 4 2 2 2 2 2 2 2 1 0 0 0 0 0 0 1 3 7 11 13 14 16
30 30 30 29 26 23 19 16 16 15 14 11 9 9 9 9 8 5 3 4 5 5 3 2 2 1 1 1 1 0 0 0 0 0 0 0 0 0 2 5 6 6 7
28 28 26 25 22 20 19 18 17 16 14 11 9 10 10 10 8 5 2 3 4 4 3 2 1 0 0 0 0 0 0 0 0 0 0 0 0 0 1 2 3 2 2
27 27 25 23 19 16 17 17 16 14 12 10 10 10 10 10 10 8 4 2 2 3 3 3 1 0 0 0 0 0 0 0 0 0 0 0 0 0 0 1 2 3 3
27 26 25 22 17 13 13 14 13 12 10 9 9 10 9 9 9 7 4 1 1 1 2 2 1 0 0 0 0 0 0 0 0 0 0 0 0 0 0 1 2 3 3
26 25 23 20 16 12 11 11 11 10 9 8 8 8 8 7 6 4 1 0 0 0 1 1 1 0 0 0 0 0 0 0 0 0 0 0 0 0 0 0 1 1 1
24 24 24 21 17 14 12 10 9 9 7 7 7 6 6 5 4 2 0 0 0 0 0 0 0 0 0 0 0 0 0 0 0 0 0 0 0 0 0 0 0 0 0
24 25 26 24 22 17 13 10 9 8 7 6 6 6 5 4 2 1 0 0 0 0 0 0 0 0 0 0 0 0 0 0 0 0 0 0 0 0 0 0 0 0 0
25 26 26 25 24 19 13 9 8 8 7 6 6 6 5 2 1 0 0 0 0 0 0 0 0 0 0 0 0 0 0 0 0 0 0 0 0 0 0 0 0 0 0

GEFSSE_con_probscp_162.txt.gz
Probability
2 4 6 8 8 8 7 8 11 14 16 16 17 19 22 21 16 11 8 5 3 1 0 0 0 0 0 0 1 2 2 1 0 0 0 0 1 1 0 0 0 0 0
2 5 7 10 11 11 10 10 12 14 16 17 18 18 19 20 17 14 10 7 3 1 0 0 0 0 0 0 0 1 1 0 0 0 0 0 1 2 1 0 0 0 0
6 8 11 14 17 17 14 14 14 14 15 17 18 18 19 18 17 15 11 7 3 1 0 0 0 0 0 0 0 0 0 0 0 0 0 0 1 1 1 0 0 0 0
11 12 15 20 25 24 21 19 19 17 15 15 17 18 18 17 15 13 10 7 4 2 0 0 0 0 0 0 1 1 0 0 0 0 0 0 0 0 0 0 0 0 0
12 13 18 27 32 31 28 25 23 22 20 17 17 18 17 15 12 11 10 9 6 2 0 0 0 1 1 1 1 1 0 0 0 0 0 0 0 0 0 0 0 0 0
11 12 19 31 38 36 31 26 25 25 24 21 20 20 18 15 12 11 11 9 6 2 0 0 2 4 3 2 1 1 0 0 0 0 0 0 0 0 0 0 0 0 0
14 14 22 35 42 39 32 26 23 23 23 21 20 19 17 14 12 12 11 9 6 2 0 0 2 5 4 3 1 0 0 0 0 0 0 0 1 1 2 1 0 0 0
18 19 26 36 42 39 32 25 21 19 18 18 17 15 13 12 12 11 9 8 5 2 0 0 1 2 3 3 1 0 0 0 0 0 0 1 2 3 3 2 1 0 0
20 22 27 32 36 35 30 25 22 20 17 16 14 12 12 12 11 9 7 6 4 2 0 0 0 0 1 2 1 1 1 1 0 0 1 2 3 3 4 3 1 0 0
21 21 22 25 27 29 27 25 25 24 21 18 16 14 15 15 12 9 8 8 5 3 2 1 1 1 0 0 0 1 2 3 2 1 1 2 3 4 5 4 2 1 0
21 18 18 20 22 25 25 25 27 27 24 21 19 17 17 16 13 10 10 10 8 6 5 4 3 2 2 2 2 2 4 6 5 2 2 3 5 5 5 4 4 3 2
16 15 16 18 21 23 23 23 24 25 24 20 18 18 17 15 13 10 10 10 10 10 9 8 6 5 7 7 6 5 6 7 6 3 2 3 5 6 6 5 5 4 4
10 12 13 15 17 18 18 19 21 23 22 20 18 18 18 15 13 10 9 9 10 11 11 10 9 10 11 12 11 8 6 7 6 3 1 2 5 7 6 5 5 5 4
7 7 9 11 13 12 11 14 17 20 21 20 18 18 17 14 11 9 8 7 7 8 9 9 8 9 10 11 11 8 6 5 4 2 1 3 5 6 5 5 5 5 4
4 4 5 8 10 9 9 10 13 17 18 17 16 15 14 12 9 8 7 5 4 5 5 6 6 7 8 9 9 9 7 6 5 3 2 5 6 5 5 5 5 4 4
2 1 2 5 7 7 7 8 10 12 14 14 14 13 12 11 10 8 6 5 3 3 3 3 4 5 6 7 7 8 8 7 6 4 2 4 5 6 7 8 6 6 7
1 1 1 2 3 5 5 6 8 9 10 12 12 11 11 11 10 7 5 4 3 1 1 1 2 3 3 4 4 4 4 4 5 4 2 2 3 4 7 9 9 9 13
3 3 2 2 3 4 5 6 7 8 8 9 9 8 8 9 9 6 4 3 2 1 1 2 2 1 1 1 1 1 1 1 1 2 1 0 0 1 3 5 7 10 14
6 7 7 6 6 5 6 7 7 7 6 6 7 7 7 7 7 5 4 3 1 0 1 3 2 1 0 0 0 0 0 0 0 0 0 0 0 0 0 1 3 6 10
9 10 11 11 8 7 6 7 7 6 5 5 6 6 6 5 5 4 3 3 1 1 1 1 1 0 0 0 0 0 0 0 0 0 0 0 0 0 0 0 1 3 5
12 13 14 13 11 8 7 7 7 6 4 4 5 6 5 4 3 3 3 3 3 2 1 0 0 0 0 0 0 0 0 0 0 0 0 0 0 0 0 0 1 2 3
16 16 15 14 12 10 7 6 5 3 2 2 3 4 4 4 4 4 3 3 3 2 1 0 0 0 0 0 0 0 0 0 0 0 0 1 0 0 0 0 1 1 1
19 17 15 14 14 12 9 6 4 2 1 1 2 3 4 4 4 4 4 3 3 1 0 0 0 0 0 0 0 0 0 0 0 0 0 0 0 0 0 0 0 0 0
20 18 16 15 15 14 11 8 5 2 1 1 1 1 2 3 3 3 3 3 3 1 0 0 0 0 0 0 0 0 0 0 0 0 0 0 0 0 0 0 0 0 0
19 18 16 15 14 14 11 8 4 2 1 2 1 0 0 1 1 1 2 2 2 1 0 0 0 0 0 0 0 0 0 0 0 0 0 0 0 0 0 0 0 0 0
17 16 15 13 12 11 9 6 3 1 1 1 1 0 0 0 0 0 1 1 1 1 0 0 0 0 0 0 0 0 0 0 0 0 0 0 0 0 0 0 0 0 0

GEFSSE_con_probscp_168.txt.gz
Probability
1 2 3 3 2 1 2 4 7 13 16 16 14 9 6 3 2 2 4 3 1 0 0 0 0 0 0 0 0 0 0 0 0 0 0 0 0 0 0 0 0 0 0
1 2 3 3 2 1 3 6 10 16 20 21 19 15 11 7 6 5 5 3 1 0 0 0 0 0 0 0 0 0 0 0 0 0 0 0 0 0 0 0 0 0 0
1 3 4 3 2 2 4 8 13 19 23 24 22 20 17 14 12 10 8 5 3 1 0 0 0 0 0 0 0 0 0 0 0 0 0 0 0 0 0 0 0 0 0
1 3 5 4 3 3 6 8 12 18 22 23 21 20 20 19 16 13 11 9 6 4 1 0 0 0 0 0 0 0 0 0 0 0 0 0 0 0 0 0 0 0 0
1 3 7 7 5 6 8 9 10 15 20 22 21 20 20 19 17 14 12 12 10 7 3 2 1 0 0 0 0 0 0 0 0 0 0 0 0 0 0 0 0 0 0
1 5 11 12 10 9 10 10 11 13 17 21 21 20 20 19 18 14 12 12 11 7 4 3 2 1 0 0 0 0 0 0 0 0 0 0 0 0 0 0 0 0 0
4 8 14 15 14 13 13 12 13 14 16 18 19 19 19 19 17 14 11 11 9 6 3 2 2 1 0 0 0 0 0 0 0 0 0 0 1 2 1 0 0 0 0
6 10 14 15 14 15 16 16 17 18 17 16 16 16 17 17 15 11 10 9 8 6 4 3 3 2 1 1 1 0 0 0 0 0 0 1 3 4 2 0 0 0 0
8 9 12 13 13 15 18 20 21 20 18 15 14 14 13 12 10 7 6 7 7 7 6 6 5 4 3 2 1 1 1 1 1 0 0 4 9 8 2 0 0 0 1
16 14 13 13 14 18 21 21 21 21 19 16 13 11 10 7 5 4 5 7 8 8 7 7 6 5 3 2 1 2 2 3 3 2 2 8 14 9 2 1 0 0 1
25 23 20 19 19 20 20 22 21 21 20 18 15 12 9 7 6 5 7 10 11 9 6 5 6 5 3 2 2 3 3 3 4 4 6 13 16 9 3 2 1 1 1
32 29 26 25 24 21 21 22 23 22 22 18 15 15 15 14 10 9 13 15 13 10 7 5 6 6 5 4 5 6 5 4 5 6 11 18 16 7 3 3 2 2 3
36 32 28 27 26 24 22 21 21 23 25 23 20 23 26 23 18 16 18 19 17 14 12 10 10 9 9 8 8 8 6 6 7 8 14 22 16 6 3 4 4 6 7
35 33 31 29 27 26 23 21 22 25 28 29 29 30 32 30 25 20 21 23 22 21 21 19 16 14 13 11 8 7 7 8 9 10 16 23 19 9 5 6 8 11 13
33 33 33 32 31 32 31 29 27 29 30 31 32 32 31 31 27 23 24 24 22 23 23 21 18 16 15 13 11 9 8 7 8 10 15 20 19 13 9 10 11 14 15
31 33 36 37 38 41 41 37 31 28 30 31 30 29 27 27 27 26 22 19 18 18 18 16 15 16 16 15 14 12 9 7 7 9 12 15 15 14 13 13 14 15 17
31 33 35 37 41 43 44 40 31 25 28 31 30 27 24 25 27 26 20 16 14 14 14 12 12 15 17 16 15 14 12 8 9 10 9 10 12 12 14 16 16 17 18
31 33 33 33 38 44 45 40 31 26 29 32 31 27 24 24 26 24 21 18 16 15 14 13 12 14 15 14 13 12 11 9 9 8 6 8 12 15 16 16 16 17 18
29 32 33 34 39 45 45 41 36 32 32 33 32 28 26 25 25 24 22 20 19 18 18 17 16 15 14 12 10 8 8 8 7 6 5 9 14 17 17 15 14 14 15
28 31 35 39 41 43 43 41 39 37 34 33 32 29 26 25 25 25 23 21 21 22 22 20 18 16 15 13 10 7 6 5 5 6 8 11 14 15 14 14 15 15 15
30 32 35 38 39 38 38 39 39 36 31 27 27 25 24 24 24 24 22 22 23 23 21 18 16 14 14 13 11 8 5 2 3 5 8 9 8 8 9 11 14 15 15
34 34 35 36 35 35 36 38 36 31 25 22 22 22 20 18 18 17 17 20 23 22 19 15 14 13 12 13 12 9 5 1 1 2 4 4 3 3 5 7 8 9 10
36 37 37 37 36 35 36 36 33 29 26 23 22 20 16 12 12 11 11 15 19 20 18 14 13 12 12 13 14 11 7 3 1 1 1 1 2 3 3 4 3 3 4
37 38 40 40 37 35 35 33 30 29 28 25 21 17 14 12 10 9 9 10 13 16 16 13 11 10 11 11 13 10 6 3 1 1 1 2 3 3 3 3 2 3 4
38 37 37 38 36 34 34 32 28 27 25 22 17 15 14 13 11 7 7 8 9 11 13 11 9 9 9 9 9 7 4 3 2 1 1 2 3 3 3 3 3 4 5
38 36 35 34 35 35 34 32 28 25 23 20 16 15 14 13 9 6 5 6 7 9 10 10 9 8 7 8 7 5 3 3 2 2 1 1 2 2 3 3 4 5 4

GEFSSE_con_probscp_174.txt.gz
Probability
18 15 15 14 9 6 5 4 4 3 3 3 3 3 3 3 3 3 3 3 3 3 3 3 3 3 3 3 3 3 3 3 3 3 3 3 3 3 3 4 4 4 3
22 16 16 15 11 7 5 4 4 3 3 3 3 3 3 3 3 3 3 3 3 3 3 3 3 3 3 3 3 3 3 3 3 3 3 3 3 4 3 4 4 4 3
25 18 15 17 14 9 5 4 4 4 4 4 3 3 4 3 3 3 3 3 3 3 3 3 3 3 3 3 3 3 3 3 3 3 3 3 4 4 4 4 4 4 3
25 21 19 20 18 12 6 5 5 5 5 5 4 4 4 4 3 3 3 3 3 4 4 4 4 4 3 3 3 3 3 3 3 3 3 3 5 6 5 4 4 3 3
27 27 29 28 23 15 9 6 5 6 6 5 5 5 5 5 4 3 3 3 4 5 5 5 5 5 4 3 3 3 3 3 3 3 3 4 6 8 7 4 3 4 4
34 36 37 35 28 19 12 8 7 7 7 7 7 8 9 8 7 5 4 4 4 5 6 6 6 6 4 3 3 3 3 3 3 3 3 4 9 13 11 7 5 5 6
42 43 43 40 34 24 16 11 9 8 8 9 10 12 14 15 13 9 7 6 6 6 7 7 6 6 5 4 3 3 3 3 3 3 3 6 14 20 16 11 10 8 7
46 48 48 46 40 30 21 15 13 11 9 8 11 15 18 17 16 13 11 10 10 10 8 7 7 6 6 4 3 3 3 3 3 3 3 11 26 31 23 17 15 13 10
49 51 49 46 43 35 26 22 21 18 13 10 12 16 18 16 14 13 14 15 15 13 10 8 8 9 8 7 5 4 3 3 3 3 4 17 39 44 32 23 21 17 14
53 54 50 45 43 37 32 31 30 25 20 16 16 18 17 15 12 12 15 18 19 16 12 9 9 10 10 9 6 4 3 4 3 3 5 20 44 51 40 31 26 22 18
60 59 53 48 44 37 35 38 36 29 23 21 20 20 20 17 14 13 17 23 24 19 15 13 12 10 9 8 7 5 5 5 4 3 8 25 45 49 42 35 30 24 20
63 61 56 52 47 40 39 43 40 32 27 26 25 25 25 23 20 18 21 28 29 23 19 19 17 13 10 10 9 8 7 5 4 3 13 31 44 45 41 36 31 24 21
64 63 59 56 52 48 47 48 43 37 35 34 34 35 34 31 29 28 29 32 31 26 24 25 22 16 12 11 10 9 8 6 4 5 18 34 40 39 38 34 29 25 23
67 65 62 60 58 58 57 53 46 41 40 43 44 45 44 40 37 35 34 34 31 29 28 27 23 17 12 10 8 7 7 6 5 9 21 32 34 33 32 31 27 25 25
70 68 64 62 63 65 64 56 46 41 42 47 51 51 49 46 41 38 38 36 31 28 28 25 21 16 12 9 8 7 7 7 8 13 21 27 29 29 28 26 25 24 24
72 70 67 64 65 68 66 57 47 42 43 49 53 52 48 45 42 40 40 37 32 28 26 21 17 15 13 11 11 11 10 9 10 15 19 21 24 26 26 26 27 27 27
72 72 68 65 65 67 65 58 50 45 45 50 53 51 46 42 40 39 39 38 36 32 26 20 16 14 14 14 14 13 14 14 14 15 17 17 19 22 26 29 33 35 35
70 71 69 64 64 65 64 59 52 48 49 51 51 49 47 44 40 37 37 38 37 33 26 19 16 15 15 15 13 12 14 17 16 14 14 15 16 19 24 30 36 36 36
67 69 68 64 62 62 61 59 53 51 51 50 48 47 47 46 41 37 38 36 33 28 22 18 16 16 15 13 10 8 11 15 16 13 12 14 17 18 19 24 29 29 27
64 63 63 61 58 56 57 56 54 52 50 46 44 45 44 42 39 36 35 32 27 21 18 16 15 15 13 10 7 5 7 11 13 12 11 13 15 14 13 16 20 19 17
57 57 56 55 53 52 52 52 52 52 48 43 41 41 39 36 34 32 30 28 24 18 16 14 13 13 12 10 7 5 5 7 8 9 10 10 10 9 9 10 13 13 12
51 51 52 51 49 47 47 48 49 49 45 41 39 38 36 32 29 27 26 26 24 20 15 12 11 10 10 10 10 7 6 5 5 7 9 8 6 5 6 7 7 8 9
46 48 50 50 47 44 43 43 43 43 41 38 36 35 33 29 26 24 23 23 23 20 14 10 9 9 8 8 9 9 8 7 7 8 8 6 4 3 3 4 4 6 9
38 41 45 46 45 42 41 39 38 38 36 35 33 32 29 26 24 22 20 19 18 16 12 9 9 8 7 7 8 8 8 8 8 9 8 5 3 4 4 4 4 5 7
31 34 40 43 42 40 39 38 37 36 35 34 33 31 29 27 25 22 19 17 15 13 10 8 7 8 8 8 8 8 8 8 9 9 7 5 4 5 5 4 3 4 5
28 32 38 41 41 39 38 37 38 38 36 35 34 31 29 28 26 23 19 17 15 13 10 7 6 6 7 8 8 8 7 7 9 9 7 5 5 5 5 4 3 3 3

GEFSSE_con_probscp_180.txt.gz
Probability
2 7 14 18 18 15 12 11 10 9 7 5 4 3 3 5 7 7 7 7 6 5 4 3 3 3 3 2 1 1 1 0 0 0 0 0 1 1 1 2 2 1 1
4 9 17 21 21 18 14 11 10 9 8 6 5 4 3 3 4 4 3 3 3 3 3 2 3 4 4 3 1 0 0 0 0 0 0 0 1 2 2 3 3 3 3
8 12 19 24 25 22 18 13 10 9 9 7 6 5 3 2 1 1 0 1 1 1 1 1 2 3 4 3 1 0 0 0 0 0 0 0 1 2 1 2 3 5 5
12 13 19 27 28 27 23 18 14 13 11 9 7 5 3 2 1 0 0 0 0 0 0 0 0 1 2 1 0 0 0 0 0 0 0 0 1 2 1 1 2 4 4
15 14 20 29 32 30 28 25 21 19 17 14 10 5 3 3 2 1 0 0 0 1 2 2 1 0 0 0 0 0 0 0 0 1 1 1 1 2 1 0 1 1 2
17 17 23 32 35 33 31 31 29 25 22 19 14 8 4 3 3 2 1 0 0 2 4 4 4 2 1 0 0 0 0 0 0 1 2 1 0 1 0 0 0 1 2
21 22 28 36 38 36 35 35 33 28 24 20 16 10 6 5 5 5 4 2 2 3 4 6 7 6 3 1 1 0 0 0 1 2 2 1 1 1 2 2 2 3 4
27 28 32 38 41 40 38 37 35 30 25 20 16 11 9 10 10 9 8 6 6 6 6 7 8 7 5 3 2 1 0 1 1 3 3 3 3 4 5 5 6 6 6
32 32 33 37 41 41 40 39 39 35 28 20 16 13 13 14 15 14 12 10 8 7 6 7 7 6 4 3 3 2 1 2 3 3 4 4 5 8 9 8 8 9 10
36 34 32 35 38 38 37 37 39 37 31 23 18 16 15 16 17 16 14 12 9 7 6 7 8 5 4 3 3 2 2 3 5 5 5 4 6 10 12 12 10 10 13
38 35 33 34 34 33 31 31 33 33 30 25 21 18 16 17 17 16 14 12 9 6 5 7 7 6 5 4 2 2 3 5 6 6 6 5 7 11 14 16 13 12 14
38 35 33 32 31 29 27 27 27 25 23 22 20 17 16 16 14 13 12 11 9 7 6 7 8 8 7 5 3 2 3 4 4 4 4 6 10 13 15 17 16 14 14
39 36 33 32 31 29 29 29 27 21 18 16 14 14 14 13 11 9 9 8 7 6 7 9 9 9 9 6 3 1 2 2 2 1 3 6 10 12 14 17 17 15 14
40 38 35 35 34 33 33 33 30 24 19 15 11 10 11 11 9 7 7 5 5 6 8 9 9 8 8 7 3 1 1 1 1 1 1 4 8 9 13 17 17 16 16
43 42 41 40 39 39 38 35 30 25 22 16 12 11 10 10 9 8 6 4 3 5 7 7 7 7 7 6 4 2 1 1 1 0 1 5 8 10 13 17 17 15 14
49 48 46 45 44 43 42 37 30 25 21 17 15 13 11 11 10 9 7 5 5 6 6 6 6 6 6 5 3 1 0 0 0 0 1 5 8 10 14 18 17 13 11
54 52 49 47 46 44 43 38 31 25 21 19 16 14 13 12 11 9 7 6 6 6 6 5 5 5 5 4 2 0 0 0 0 0 1 3 5 7 11 15 15 11 6
54 53 50 47 44 42 39 36 30 24 21 18 16 15 14 12 10 9 8 6 5 5 5 5 5 4 4 2 1 0 0 0 0 0 0 0 1 3 5 8 9 7 3
52 52 50 46 43 41 36 31 27 24 20 17 16 15 14 11 8 8 7 5 4 3 4 5 4 3 2 1 0 0 0 0 0 0 0 0 0 2 3 4 5 4 3
50 50 48 44 43 40 36 31 27 23 19 16 16 15 13 10 8 7 7 5 4 3 3 4 3 3 3 2 1 0 0 0 0 0 0 0 0 1 2 2 2 2 2
45 45 44 42 41 40 37 34 28 22 18 15 14 13 11 9 7 6 5 5 3 2 2 2 2 2 2 2 1 0 0 0 0 0 0 0 0 0 1 1 1 1 1
35 37 38 37 36 36 36 34 28 21 15 12 10 8 7 6 5 4 4 4 3 3 1 1 1 1 1 1 0 0 0 0 0 0 0 0 0 0 0 0 0 0 0
27 29 31 30 29 30 32 31 26 20 13 9 6 5 4 4 4 3 3 4 4 4 1 0 0 0 0 0 0 0 0 0 0 0 0 0 0 0 0 0 0 0 0
23 24 24 24 23 24 25 24 22 17 11 6 5 5 5 6 6 5 5 5 5 4 1 0 0 0 0 0 0 0 0 0 0 0 0 0 0 0 0 0 0 0 0
18 18 18 19 18 18 17 18 17 14 10 7 6 6 8 9 8 7 5 4 3 2 0 0 0 0 0 0 0 0 0 0 0 0 0 0 0 0 0 0 0 0 0
13 13 15 16 15 14 14 14 14 12 10 8 6 7 10 10 9 7 5 2 1 0 0 0 0 0 0 0 0 0 0 0 0 0 0 0 0 0 0 0 0 0 0

GEFSSE_con_probscp_186.txt.gz
Probability
0 3 7 10 11 15 17 19 20 21 22 23 25 25 23 23 21 15 10 7 6 4 1 0 0 0 0 0 0 0 0 0 0 0 0 0 0 0 0 0 0 0 0
1 4 10 13 14 17 20 21 21 20 20 22 24 25 24 23 21 17 13 10 8 5 2 1 1 0 0 0 0 0 0 0 0 0 0 0 0 0 0 0 0 0 0
4 9 15 18 19 21 22 23 22 20 19 21 24 25 24 23 21 18 15 13 11 8 5 4 3 2 1 0 0 0 0 0 0 0 0 0 0 0 0 0 1 1 1
10 14 18 21 23 23 23 24 23 21 21 23 24 24 23 23 21 18 16 15 14 13 9 7 6 5 4 2 1 0 0 0 0 0 0 0 0 0 0 0 1 1 1
12 14 19 23 24 25 25 25 26 26 25 25 24 24 24 23 20 19 18 17 16 16 15 12 10 9 8 5 3 1 0 0 0 0 0 0 0 0 1 1 1 1 2
12 13 18 24 26 28 29 29 29 31 31 29 27 25 24 22 20 19 19 17 16 16 17 17 15 14 11 8 4 1 0 0 0 1 2 1 1 1 2 2 1 1 3
14 15 19 25 30 32 33 33 33 36 37 35 31 27 25 22 20 20 19 17 14 13 13 14 15 15 13 9 5 2 1 0 0 1 3 3 2 2 3 4 3 3 4
19 20 22 27 31 35 38 38 40 41 42 41 36 32 30 26 23 21 20 18 15 12 9 8 10 12 12 9 6 3 1 0 1 1 2 3 3 2 3 5 6 6 6
23 23 25 27 29 34 40 43 45 44 44 43 41 39 34 30 26 23 21 21 19 14 10 7 7 10 12 10 6 4 2 1 2 3 2 2 2 1 2 4 6 7 8
23 23 24 25 27 30 36 42 42 41 42 42 42 40 35 29 26 24 23 22 21 18 14 12 11 13 14 10 7 5 5 4 4 4 4 2 1 1 2 3 4 5 6
24 24 23 23 24 27 30 33 34 35 35 35 35 34 30 26 23 22 22 21 22 21 20 19 17 16 15 12 8 6 7 7 6 4 3 2 1 1 2 4 4 3 3
29 27 24 23 24 27 29 28 28 30 30 27 25 25 24 22 20 20 19 20 21 22 23 22 18 15 14 13 8 5 6 8 8 6 3 2 2 2 2 4 4 3 3
31 29 27 28 29 29 29 28 27 29 28 25 21 20 20 18 17 18 18 18 19 20 19 19 16 13 13 11 8 5 5 7 9 8 4 3 3 3 3 4 4 3 3
31 30 30 32 32 30 28 27 27 28 27 24 21 20 19 18 16 16 16 15 15 15 14 14 14 12 11 10 8 6 6 6 7 7 5 3 5 6 5 5 6 7 6
28 29 31 33 31 29 27 26 26 25 24 22 20 19 19 18 17 16 14 12 10 10 10 10 11 10 9 8 8 7 6 6 6 5 3 2 4 7 7 7 9 10 10
24 26 29 30 29 27 27 25 23 21 20 20 19 19 19 19 18 15 12 10 9 8 7 7 8 8 7 6 6 6 5 5 5 4 3 1 2 5 8 9 11 12 12
22 23 24 25 25 24 25 23 21 20 20 19 19 19 19 18 16 13 9 7 7 7 6 5 5 5 5 4 4 4 4 3 3 3 3 2 1 2 5 8 10 11 11
23 21 21 21 20 20 22 22 22 20 19 19 18 18 17 17 14 10 7 6 6 7 7 6 5 4 3 3 3 2 1 1 1 1 2 2 1 1 2 4 6 7 7
25 23 21 20 18 17 18 20 21 18 16 16 15 14 14 14 11 6 5 5 6 7 8 7 6 5 4 4 3 2 0 0 0 0 1 1 0 1 2 2 2 3 4
24 22 20 19 17 14 15 18 18 16 14 13 11 10 9 8 6 4 3 4 6 7 7 7 7 6 5 4 2 1 0 0 1 1 0 0 0 1 2 2 1 1 1
21 19 18 17 16 15 16 17 16 15 13 11 8 5 4 3 4 4 4 5 6 6 6 6 6 5 3 2 1 0 0 0 1 1 0 0 0 1 2 1 1 0 0
16 16 15 16 17 18 17 16 14 14 11 8 4 2 2 2 3 4 5 5 6 5 4 4 4 3 1 0 0 0 0 0 1 1 0 0 0 1 1 2 1 1 0
12 13 14 15 16 17 16 15 14 13 9 5 2 2 3 3 3 4 5 5 4 3 3 2 2 1 0 0 0 0 0 0 0 0 0 0 0 0 1 2 2 1 0
9 11 12 13 13 14 14 14 15 13 9 5 3 2 3 3 3 3 4 4 2 1 1 1 1 0 0 0 0 0 0 0 0 0 0 0 0 0 0 1 1 0 1
6 9 11 11 11 12 13 14 15 14 10 6 4 2 1 1 2 3 4 3 2 1 0 0 0 0 0 0 0 0 0 0 0 0 0 0 0 0 0 0 0 1 2
3 7 11 12 12 12 12 13 14 13 9 5 3 1 0 1 2 3 3 3 3 2 1 0 0 0 0 0 0 0 0 0 0 0 0 0 0 0 0 0 0 1 2